Location: Maiden
(35.5760°N, 81.2120°W)
Time: 03:05:50
(UTC-04:00)

USA 186 - Pass Details

Date: 02 August 2020
Orbit: 262 x 437 km, 96.9° (Epoch: 06 August)

Event Time Altitude Azimuth Distance (km) Brightness Sun altitude
Exits shadow 21:18:27 - 180° (S) 1,823 4.7 -10.2°
Reaches altitude 10° 21:19:54 10° 186° (S) 1,195 3.8 -10.4°
Maximum altitude 21:22:19 42° 260° (W) 440 2.3 -10.8°
Drops below altitude 10° 21:24:37 10° 334° (NNW) 1,138 4.9 -11.2°
Sets 21:26:28 0° 342° (NNW) 1,936 6.0 -11.6°
